Regional Weather Roundup
Issued by NWS Huntsville, AL

Home | Current Version | Previous Version | Text Only | Print | Product List | Glossary On
Versions: 1 2 3 4 5 6 7 8 9 10 11 12 13 14 15 16 17 18 19 20 21 22 23 24 25 26 27 28 29 30 31 32 33 34 35 36 37 38 39 40 41 42 43 44 45 46 47 48 49 50
000
ASUS44 KHUN 201124
RWRHUN

WEATHER ROUNDUP FOR THE TENNESSEE VALLEY
NATIONAL WEATHER SERVICE HUNTSVILLE AL
600 AM CDT SUN APR 20 2014

ALZ001>004-201200-
NORTHWEST ALABAMA

CITY           SKY/WX    TMP DP  RH WIND       PRES   REMARKS
COURTLAND HCN    N/A     45 N/A N/A CALM        N/A
RUSSELLVILLE     N/A     45 N/A N/A MISG        N/A
SHOALS AIRPORT CLEAR     45  41  86 CALM      30.22R
SHOALS TVA RES   N/A     46 N/A N/A MISG        N/A
$$

ALZ005>007-016-201200-
NORTH CENTRAL ALABAMA

CITY           SKY/WX    TMP DP  RH WIND       PRES   REMARKS
CULLMAN AG STN   N/A     43 N/A N/A CALM        N/A
DECATUR AP     CLEAR     44  42  93 CALM      30.22R
HUNTSVILLE AP  PTCLDY    47  43  86 E6        30.21R
HUN NWS/UAH      N/A     48  43  85 CALM        N/A
MERIDIANVILLE  CLEAR     43  37  81 CALM      30.22R
VINEMONT AP    FAIR      52  44  74 CALM      30.24R
$$

ALZ008>010-201200-
NORTHEAST ALABAMA

CITY           SKY/WX    TMP DP  RH WIND       PRES   REMARKS
ALBERTVILLE    CLEAR     48  46  93 CALM      30.21R
CROSSVILLE       N/A     45 N/A N/A CALM        N/A
FORT PAYNE     CLEAR     41  37  87 CALM      30.22R
SCOTTSBORO AP  CLEAR     43  41  93 CALM      30.24R
SCOTTSBORO HCN   N/A     43 N/A N/A MISG        N/A
VALLEY HEAD      N/A     41 N/A N/A MISG        N/A
$$

TNZ076-096-097-201200-
SOUTHEASTERN MIDDLE TENNESSEE

CITY           SKY/WX    TMP DP  RH WIND       PRES   REMARKS
FAYETTEVILLE   FAIR      46  39  76 S8G15     30.21R
TULLAHOMA      CLEAR     41  37  87 CALM      30.22R
WINCHESTER     CLEAR     39  37  93 CALM      30.23R
$$

...SURROUNDING SITES...

CITY           SKY/WX    TMP DP  RH WIND       PRES   REMARKS
ATLANTA        PTCLDY    51  43  74 NE13      30.18S
ANNISTON       CLEAR     50  43  77 CALM      30.21R
BIRMINGHAM     PTCLDY    55  41  59 NE3       30.23R
CHATTANOOGA    PTCLDY    44  42  93 CALM      30.22R
CORINTH        FAIR      45  43  93 S5        30.20R
DALTON         CLEAR     43  43 100 CALM      30.23R FOG
GADSDEN        NOT AVBL
GOLDEN TRNGL   CLEAR     48  43  81 SE7       30.21S
HALEYVILLE     FAIR      47  43  86 SE3       30.23R
JACKSON TN     CLEAR     43  40  89 CALM      30.19R
LEWISBURG      FAIR      39  37  92 CALM      30.20R
MEMPHIS        PTCLDY    52  46  80 CALM      30.18R
MURFREESBORO   FAIR      45  42  89 CALM      30.19S
NASHVILLE      PTCLDY    47  43  86 CALM      30.20R
OXFORD MS      FAIR      46  43  87 CALM      30.20S
ROME           CLEAR     46  45  96 N3        30.21R
TUPELO         CLEAR     49  46  90 CALM      30.20R
TUSCALOOSA     CLEAR     47  45  93 CALM      30.21R
$$

...GULF COAST WEATHER...

CITY           SKY/WX    TMP DP  RH WIND       PRES   REMARKS
GULFPORT       CLEAR     57  52  83 CALM      30.14R
PASCAGOULA     FOG       51  50  96 CALM      30.16R VSB 1
MOBILE         PTCLDY    54  52  93 CALM      30.16R
GULF SHORES    SUNNY     54  52  94 CALM      30.15R
PENSACOLA      CLEAR     56  53  90 N3        30.13R
DESTIN         CLOUDY    59  53  80 E6        30.13R
PANAMA CITY    CLOUDY    58  52  81 NE6       30.12R
APPALACHICOLA  CLOUDY    60  53  77 N7        30.09R
$$




USA.gov is the U.S. government's official web portal to all federal, state and local government web resources and services.